Location: Cahas Mountain Overlook
(37.0833°N, 80.1000°W)
Time: 18:34:46
(UTC-05:00)

Vanguard 3 - Pass Details

Date: 12 December 2023
Orbit: 508 x 3239 km, 33.4° (Epoch: 23 February)

Event Time Altitude Azimuth Distance (km) Brightness Sun altitude
Rises 19:52:40 0° 244° (WSW) 7,189 12.9 -32.8°
Reaches altitude 10° 19:57:43 10° 242° (WSW) 6,086 12.3 -33.8°
Maximum altitude 20:15:59 66° 166° (SSE) 2,619 9.4 -37.5°
Enters shadow 20:17:47 62° 134° (SE) 2,565 9.2 -37.8°
